KUIPER-00547

导读

KUIPER-00547(NORAD编号69615)是亚马逊柯伊伯低轨互联网星座(原Project Kuiper)的组网卫星,属于该星座2025年启动规模部署后发射的组网星序列。该星座计划部署3236颗低轨卫星,旨在为全球网络欠发达区域提供高速宽带服务,当前已完成7次发射,在轨运作卫星超150颗。 该卫星搭载相控阵天线与星间激光链路,发射后将从初始部署轨道逐步抬升至630公里左右的工作轨道,测试验证后将正式投入通信服务,支撑机载互联网等场景落地,是亚马逊对标星链的全球通信网络建设的组成部分。

基本信息
目录编号:
69615
目录名称:
KUIPER-00547
国际标识:
2026-140Z
轨道中心:
EARTH
卫星名称:
KUIPER-00547
卫星全名:
KUIPER-00547
卫星状态:
在轨 (已飞行70 天)
发射日期:
2026-06-17 UTC
国别 :
美国 (US)
星等 :
--
轨道信息
数据来源 国际轨道数据
星历时间: 2026-08-25T20:21:00+0800
22小时前
查看轨道信息
半长轴: 6828.426km
偏心率: 0.0011598
轨道倾角: 51.880°
近地点辐角 77.393°
升交点赤经 63.168°
平近点角 282.835°
近地点: 442.369km
远地点: 458.209km
周期: 93.592分钟
每日圈数: 15.385865
详细信息
使用方式:
暂无
2D轨道图
3D轨道图
轨道高度分析图
轨道倾角分析图
轨道综合分析图
查看轨道综合分析图